Location: Fort Wayne
(41.1310°N, 85.1290°W)
Time: 19:39:31
(UTC-04:00)

Amateur Radio Satellites - All Passes

Search period start: 22 May 2015 19:09
Search period end: 23 May 2015 19:09
Location: Fort Wayne, 41.1310°N, 85.1290°W

Satellite Date Start Highest point End Downlink Frequencies (MHz)
Time Altitude Azimuth
O/OREOS (USA 219) 22 May 19:19:34 19:21:46 13° 310° (NW) 19:23:46 437.305
CUBESAT XI-V 22 May 19:24:06 19:28:11 30° 95° (E) 19:32:19 437.345
BEESAT 2 22 May 19:37:16 19:40:29 23° 113° (ESE) 19:43:47 435.950
MOZHAYETS 4 22 May 19:37:22 19:40:31 18° 294° (WNW) 19:43:31
YUBILEINY 22 May 19:42:39 19:51:07 54° 76° (ENE) 19:59:35 435.215
PRISM 22 May 19:43:45 19:46:44 19° 93° (E) 19:49:49 437.425
Cosmos 2491 22 May 19:45:34 19:52:27 28° 83° (E) 19:59:38 435.465 / 435.565
CUTE-I 22 May 19:51:10 19:56:06 39° 263° (W) 20:01:04 437.470
Cubesat XI-IV 22 May 20:10:55 20:15:22 26° 266° (W) 20:19:45 437.490
M-CUBED/EXP-1 PRIME 22 May 20:19:02 20:21:07 16° 98° (E) 20:23:17 437.505
STRAND 1 22 May 20:20:25 20:25:19 45° 98° (E) 20:30:16 437.568
HO-68 22 May 20:21:43 20:27:48 32° 62° (ENE) 20:34:02 435.675
BRITE-PL 22 May 20:28:43 20:33:22 44° 71° (ENE) 20:38:26 437.365/2234.400
AUBIESAT-1 22 May 20:31:39 20:34:07 20° 99° (E) 20:36:39 437.475
BEESAT 3 22 May 20:32:06 20:36:10 73° 303° (WNW) 20:40:18 437.485
RS-15 22 May 20:32:15 20:43:48 69° 243° (WSW) 20:55:45 29.354- 29.394
AIST 2 22 May 20:33:09 20:36:42 26° 114° (ESE) 20:40:20 435.215
SEEDS 22 May 20:39:30 20:42:09 17° 67° (ENE) 20:44:55 437.485
DOVE 4 22 May 20:43:43 20:47:54 28° 67° (ENE) 20:52:21 437.250
GOMX 1 22 May 20:56:09 21:00:59 53° 73° (ENE) 21:06:11 467.674
CINEMA 3 22 May 20:58:38 21:02:06 20° 65° (ENE) 21:05:46 145.822/145.860
COMPASS 1 22 May 21:00:03 21:03:15 22° 69° (ENE) 21:06:33 437.405
CUBESAT XI-V 22 May 21:01:33 21:05:35 28° 291° (WNW) 21:09:32 437.345
BEESAT 2 22 May 21:14:38 21:18:25 34° 310° (NW) 21:22:13 435.950
AAUSAT CUBESAT 2 22 May 21:16:02 21:19:35 28° 70° (ENE) 21:23:12 437.432
PRISM 22 May 21:18:32 21:22:17 33° 290° (WNW) 21:26:01 437.425
Oscar 11 22 May 21:33:39 21:36:56 22° 68° (ENE) 21:40:18 145.826/435.025
CANX-2 22 May 21:38:40 21:42:57 81° 259° (WSW) 21:47:15 2200.000
Cosmos 2491 22 May 21:40:02 21:48:44 64° 282° (WNW) 21:57:30 435.465 / 435.565
YUBILEINY 22 May 21:40:05 21:47:37 33° 275° (W) 21:54:55 435.215
CUTE 1.7 + AOD 2 22 May 21:42:59 21:47:16 80° 257° (WSW) 21:51:34 437.475
UWE-3 22 May 21:43:59 21:47:33 22° 67° (ENE) 21:51:13 435.000/436.395/437.385
M-CUBED/EXP-1 PRIME 22 May 21:53:16 21:56:06 25° 295° (WNW) 21:58:50 437.505
AIST 1 22 May 21:56:46 22:00:50 48° 94° (E) 22:04:59
STRAND 1 22 May 22:00:16 22:04:17 23° 295° (WNW) 22:08:10 437.568
AUBIESAT-1 22 May 22:06:21 22:08:55 20° 296° (WNW) 22:11:23 437.475
FUNcube-1 22 May 22:06:48 22:10:42 29° 69° (ENE) 22:14:40 145.935
Cosmos 2504 22 May 22:07:35 22:14:24 42° 74° (ENE) 22:21:10 435.465 / 435.565
HO-68 22 May 22:08:18 22:15:17 52° 260° (W) 22:22:16 435.675
BRITE-PL 22 May 22:08:19 22:12:11 22° 270° (W) 22:16:08 437.365/2234.400
AIST 2 22 May 22:11:20 22:15:11 32° 311° (NW) 22:19:03 435.215
SEEDS 22 May 22:13:36 22:17:39 43° 262° (W) 22:21:42 437.485
BEESAT 3 22 May 22:13:55 22:14:57 11° 324° (NW) 22:15:51 437.485
DELFI C3 22 May 22:15:26 22:19:15 42° 73° (ENE) 22:23:06 145.870
DOVE 4 22 May 22:20:53 22:25:30 36° 265° (W) 22:30:18 437.250
CUBEBUG 2 22 May 22:21:26 22:26:08 65° 75° (ENE) 22:30:54 437.445
CINEMA 3 22 May 22:34:08 22:38:55 51° 262° (W) 22:43:50 145.822/145.860
COMPASS 1 22 May 22:35:03 22:38:48 30° 264° (W) 22:42:31 437.405
GOMX 1 22 May 22:35:58 22:39:33 19° 272° (W) 22:43:05 467.674
ESTCUBE 1 22 May 22:41:48 22:42:17 10° 62° (ENE) 22:43:02 437.505/2401.250
ZACube-1 22 May 22:44:26 22:49:01 73° 76° (ENE) 22:53:38 437.345
RS-15 22 May 22:48:22 22:54:34 15° 261° (W) 22:59:46 29.354- 29.394
AAUSAT CUBESAT 2 22 May 22:51:47 22:55:12 23° 266° (W) 22:58:33 437.432
VELOX 1 22 May 22:54:38 22:58:09 24° 68° (ENE) 23:01:44 145.980
UKube-1 22 May 22:56:56 23:01:03 47° 72° (ENE) 23:05:15 .
DX 1 22 May 22:58:25 23:02:37 53° 73° (ENE) 23:06:55 434.975-435.025
CUBEBUG 1 22 May 23:07:42 23:10:22 17° 65° (ENE) 23:13:12 437.445
Oscar 11 22 May 23:08:59 23:12:57 33° 264° (W) 23:16:53 145.826/435.025
ANTELSAT 22 May 23:09:40 23:11:38 13° 88° (E) 23:13:47 437.575/2403.000
HUMSAT D 22 May 23:18:06 23:22:26 79° 78° (ENE) 23:26:47 437.325/437.525
UWE-3 22 May 23:19:28 23:23:51 39° 263° (W) 23:28:15 435.000/436.395/437.385
AISAT 22 May 23:23:36 23:27:52 49° 72° (ENE) 23:32:12 437.250
AIST 1 22 May 23:36:34 23:38:53 14° 292° (WNW) 23:41:01
FUNcube-1 22 May 23:42:59 23:46:58 28° 266° (W) 23:50:55 145.935
TIGRISAT 22 May 23:43:20 23:47:12 30° 95° (E) 23:51:01 435.000
Cosmos 2491 22 May 23:44:19 23:47:57 12° 307° (NW) 23:50:56 435.465 / 435.565
50 SAT 22 May 23:45:54 23:49:56 86° 257° (WSW) 23:53:58 437.505
DELFI C3 22 May 23:52:17 23:54:38 14° 270° (W) 23:56:48 145.870
NANOSAT C BR1 22 May 23:59:02 00:02:11 20° 93° (E) 00:05:25 145.865
CUBEBUG 2 23 May 00:00:56 00:03:20 13° 272° (W) 00:05:29 437.445
Cosmos 2504 23 May 00:01:18 00:07:39 33° 273° (W) 00:13:47 435.465 / 435.565
UNISAT 6 23 May 00:01:20 00:05:39 48° 99° (E) 00:09:51 437.425
QB50P2 23 May 00:03:15 00:06:40 23° 94° (E) 00:10:09 145.880/145.840
SPROUT 23 May 00:04:42 00:07:38 19° 67° (ENE) 00:10:42 437.525
GONETS M04 23 May 00:11:36 00:17:25 20° 60° (ENE) 00:23:38
ESTCUBE 1 23 May 00:14:04 00:18:33 84° 257° (WSW) 00:23:04 437.505/2401.250
POPSAT HIP 1 23 May 00:16:29 00:20:18 31° 96° (E) 00:24:09 437.405
CUSAT 1 23 May 00:19:30 00:25:32 25° 61° (ENE) 00:30:55 437.405
DUCHIFAT 1 23 May 00:22:18 00:26:14 35° 97° (E) 00:30:11 145.980
ZACube-1 23 May 00:24:34 00:25:58 11° 273° (W) 00:27:05 437.345
VELOX 1 23 May 00:30:35 00:34:34 32° 264° (W) 00:38:32 145.980
UKube-1 23 May 00:34:53 00:37:31 15° 269° (W) 00:39:58 .
DX 1 23 May 00:36:57 00:39:16 14° 270° (W) 00:41:24 434.975-435.025
CUBEBUG 1 23 May 00:42:12 00:46:24 46° 261° (W) 00:50:37 437.445
ANTELSAT 23 May 00:44:32 00:48:53 55° 286° (WNW) 00:53:06 437.575/2403.000
TISAT 1 23 May 00:45:31 00:49:23 37° 71° (ENE) 00:53:21 437.305
DANDE 23 May 00:57:52 01:05:27 39° 68° (ENE) 01:11:56 436.750
POLYITAN 1 23 May 01:00:05 01:04:24 80° 284° (WNW) 01:08:40 437.675
QB50P1 23 May 01:00:45 01:05:04 80° 284° (WNW) 01:09:19 145.935-145.965
AISAT 23 May 01:02:06 01:04:48 15° 270° (W) 01:07:19 437.250
ITUPSAT 1 23 May 01:02:22 01:03:12 11° 61° (ENE) 01:04:19 437.325
BUGSAT 1 23 May 01:06:36 01:10:54 81° 102° (ESE) 01:15:10 437.445
ISS 23 May 01:08:12 01:10:12 16° 132° (SE) 01:12:16 145.825
BEESAT 23 May 01:11:37 01:13:51 14° 63° (ENE) 01:16:20 436.000
SWISSCUBE 23 May 01:18:29 01:21:29 17° 65° (ENE) 01:24:39 437.505
TIGRISAT 23 May 01:20:12 01:23:51 25° 292° (WNW) 01:27:21 435.000
NANOSAT C BR1 23 May 01:34:14 01:38:08 34° 289° (WNW) 01:41:58 145.865
QB50P2 23 May 01:38:49 01:42:35 30° 290° (WNW) 01:46:18 145.880/145.840
UNISAT 6 23 May 01:39:15 01:42:03 16° 295° (WNW) 01:44:40 437.425
SPROUT 23 May 01:39:23 01:43:27 40° 262° (W) 01:47:33 437.525
POPSAT HIP 1 23 May 01:52:37 01:56:02 23° 292° (WNW) 01:59:20 437.405
DUCHIFAT 1 23 May 01:58:39 02:01:51 20° 293° (WNW) 02:04:55 145.980
CUSAT 1 23 May 02:01:28 02:09:07 65° 266° (W) 02:15:10 437.405
GONETS M04 23 May 02:06:51 02:15:43 88° 261° (W) 02:24:28
O/OREOS (USA 219) 23 May 02:09:19 02:11:54 15° 52° (NE) 02:14:38 437.305
PCSat 23 May 02:18:15 02:23:08 37° 111° (ESE) 02:28:07 145.827
TISAT 1 23 May 02:22:18 02:25:20 19° 268° (W) 02:28:17 437.305
KKS-1 23 May 02:30:21 02:32:48 15° 64° (ENE) 02:35:25 437.445
ITUPSAT 1 23 May 02:35:41 02:40:27 90° 69° (ENE) 02:45:14 437.325
DANDE 23 May 02:41:08 02:48:51 45° 271° (W) 02:55:10 436.750
ISS 23 May 02:43:07 02:46:20 58° 327° (NNW) 02:49:33 145.825
BEESAT 23 May 02:46:27 02:51:12 70° 258° (WSW) 02:55:58 436.000
Cosmos 2499 23 May 02:50:06 02:56:15 31° 70° (ENE) 03:02:30 435.465 / 435.565
SWISSCUBE 23 May 02:54:20 02:58:58 53° 260° (W) 03:03:38 437.505
Oscar 19 23 May 03:05:18 03:10:28 65° 102° (ESE) 03:15:33 437.125/150
ITAMSAT 1 23 May 03:09:58 03:13:47 21° 92° (E) 03:17:45 435.822/435.867
Gurwin Techsat 1B 23 May 03:20:29 03:24:46 25° 93° (E) 03:29:10 435.225
STARS 23 May 03:43:46 03:48:05 53° 73° (ENE) 03:52:27 437.465
O/OREOS (USA 219) 23 May 03:47:22 03:51:46 58° 251° (WSW) 03:56:08 437.305
BEESAT 2 23 May 03:56:23 03:59:08 17° 42° (NE) 04:01:57 435.950
PCSat 23 May 04:01:42 04:06:36 33° 309° (NW) 04:11:29 145.827
KKS-1 23 May 04:04:37 04:09:01 56° 260° (W) 04:13:28 437.445
GONETS M04 23 May 04:06:02 04:11:26 17° 281° (WNW) 04:16:17
VERMONT LUNAR 23 May 04:15:20 04:17:40 19° 152° (SSE) 04:20:03 437.305
ISS 23 May 04:21:06 04:23:17 16° 346° (NNW) 04:25:28 145.825
AO-7 23 May 04:29:36 04:35:35 22° 91° (E) 04:41:56 29.400- 29.500
SO-50 23 May 04:35:53 04:39:51 28° 113° (ESE) 04:43:59 436.795
Cosmos 2499 23 May 04:42:57 04:49:36 44° 270° (W) 04:56:10 435.465 / 435.565
Oscar 19 23 May 04:46:03 04:49:19 17° 297° (WNW) 04:52:23 437.125/150
HORYU 2 23 May 04:48:02 04:51:51 28° 96° (E) 04:55:43 437.375
ITAMSAT 1 23 May 04:48:34 04:53:35 48° 289° (WNW) 04:58:34 435.822/435.867
BEESAT 3 23 May 04:50:53 04:54:57 64° 55° (NE) 04:58:57 437.485
AIST 2 23 May 04:54:49 04:58:00 20° 44° (NE) 05:01:12 435.215
Gurwin Techsat 1B 23 May 04:59:57 05:04:55 41° 290° (WNW) 05:09:51 435.225
MOZHAYETS 4 23 May 05:01:00 05:05:19 43° 72° (ENE) 05:09:40
STARS 23 May 05:22:27 05:24:55 14° 270° (W) 05:27:12 437.465
JAS-2 23 May 05:24:18 05:29:27 59° 100° (E) 05:34:38 435.910
PHONESAT 2.4 23 May 05:27:04 05:29:42 21° 152° (SSE) 05:32:22 2401.200-2431.200
BEESAT 2 23 May 05:33:33 05:37:35 55° 241° (WSW) 05:41:31 435.950
VERMONT LUNAR 23 May 05:51:24 05:54:34 60° 167° (SSE) 05:57:43 437.305
Cosmos 2491 23 May 05:56:36 06:00:06 13° 54° (NE) 06:04:14 435.465 / 435.565
ISS 23 May 05:58:54 06:00:41 14° 7° (N) 06:02:30 145.825
SO-50 23 May 06:15:54 06:20:17 36° 312° (NW) 06:24:46 436.795
AO-7 23 May 06:20:57 06:29:20 78° 290° (WNW) 06:37:41 29.400- 29.500
HORYU 2 23 May 06:24:42 06:28:26 26° 292° (WNW) 06:32:04 437.375
CUBESAT XI-V 23 May 06:27:39 06:31:33 29° 69° (ENE) 06:35:32 437.345
BEESAT 3 23 May 06:31:03 06:32:27 11° 251° (WSW) 06:33:38 437.485
AIST 2 23 May 06:32:46 06:36:50 46° 243° (WSW) 06:40:48 435.215
PRISM 23 May 06:34:44 06:37:02 15° 65° (ENE) 06:39:29 437.425
MOZHAYETS 4 23 May 06:39:33 06:42:48 18° 269° (W) 06:45:53
Cubesat XI-IV 23 May 06:48:43 06:51:42 15° 89° (E) 06:54:57 437.490
PHONESAT 2.4 23 May 07:04:04 07:07:29 62° 168° (SSE) 07:10:55 2401.200-2431.200
M-CUBED/EXP-1 PRIME 23 May 07:06:13 07:10:00 30° 66° (ENE) 07:13:34 437.505
JAS-2 23 May 07:10:52 07:14:11 17° 298° (WNW) 07:17:18 435.910
AUBIESAT-1 23 May 07:18:31 07:22:25 35° 67° (ENE) 07:26:06 437.475
VERMONT LUNAR 23 May 07:28:31 07:31:42 79° 187° (S) 07:34:55 437.305
ISS 23 May 07:34:53 07:37:52 32° 26° (NNE) 07:40:52 145.825
STRAND 1 23 May 07:36:10 07:41:12 65° 73° (ENE) 07:46:16 437.568
Cosmos 2491 23 May 07:50:24 07:59:12 67° 78° (ENE) 08:07:57 435.465 / 435.565
CUBESAT XI-V 23 May 08:05:00 08:08:58 28° 266° (W) 08:12:54 437.345
AIST 1 23 May 08:05:26 08:07:21 13° 67° (ENE) 08:09:29
CUTE-I 23 May 08:07:44 08:13:08 83° 103° (ESE) 08:18:31 437.470
PRISM 23 May 08:08:14 08:12:09 45° 261° (W) 08:16:06 437.425
AO-7 23 May 08:15:31 08:20:59 19° 309° (NW) 08:26:06 29.400- 29.500
Cubesat XI-IV 23 May 08:27:03 08:32:23 67° 287° (WNW) 08:37:42 437.490
BRITE-PL 23 May 08:34:37 08:38:10 17° 87° (E) 08:41:55 437.365/2234.400
M-CUBED/EXP-1 PRIME 23 May 08:41:11 08:44:50 24° 259° (W) 08:48:12 437.505
PHONESAT 2.4 23 May 08:42:06 08:45:33 80° 185° (S) 08:49:02 2401.200-2431.200
YUBILEINY 23 May 08:43:01 08:51:34 62° 92° (E) 09:00:10 435.215
RS-15 23 May 08:48:47 08:54:55 18° 101° (E) 09:01:52 29.354- 29.394
AUBIESAT-1 23 May 08:53:57 08:57:15 20° 260° (W) 09:00:16 437.475
GOMX 1 23 May 08:59:23 09:02:57 18° 88° (E) 09:06:36 467.674
VERMONT LUNAR 23 May 09:05:48 09:08:45 35° 201° (SSW) 09:11:44 437.305
ISS 23 May 09:11:18 09:14:17 33° 223° (SW) 09:17:16 145.825
STRAND 1 23 May 09:18:02 09:20:57 15° 271° (W) 09:23:37 437.568
CANX-2 23 May 09:25:10 09:27:53 17° 91° (E) 09:30:46 2200.000
CUTE 1.7 + AOD 2 23 May 09:29:23 09:32:08 17° 91° (E) 09:35:01 437.475
HO-68 23 May 09:36:14 09:42:24 32° 95° (E) 09:48:41 435.675
AIST 1 23 May 09:41:11 09:45:28 55° 266° (W) 09:49:45
Cosmos 2491 23 May 09:48:24 09:55:26 26° 277° (W) 10:02:07 435.465 / 435.565
CUTE-I 23 May 09:49:48 09:52:35 14° 299° (WNW) 09:55:08 437.470
SEEDS 23 May 09:58:08 10:01:47 29° 95° (E) 10:05:28 437.485
ANTELSAT 23 May 10:08:46 10:11:08 14° 64° (ENE) 10:13:41 437.575/2403.000
BRITE-PL 23 May 10:11:34 10:17:15 66° 286° (WNW) 10:22:43 437.365/2234.400
CUBEBUG 2 23 May 10:14:46 10:16:55 14° 88° (E) 10:19:14 437.445
COMPASS 1 23 May 10:18:07 10:22:01 39° 97° (E) 10:25:56 437.405
DOVE 4 23 May 10:19:52 10:25:05 69° 101° (E) 10:30:02 437.250
PHONESAT 2.4 23 May 10:20:17 10:23:31 37° 201° (SSW) 10:26:45 2401.200-2431.200
CINEMA 3 23 May 10:29:35 10:34:08 41° 96° (E) 10:38:29 145.822/145.860
AAUSAT CUBESAT 2 23 May 10:33:52 10:37:55 52° 99° (E) 10:41:56 437.432
ZACube-1 23 May 10:35:09 10:37:17 14° 89° (E) 10:39:36 437.345
GOMX 1 23 May 10:36:09 10:41:32 58° 287° (WNW) 10:46:40 467.674
YUBILEINY 23 May 10:41:34 10:49:04 29° 293° (WNW) 10:56:20 435.215
TIGRISAT 23 May 10:41:47 10:45:47 29° 69° (ENE) 10:49:50 435.000
Cosmos 2504 23 May 10:45:03 10:52:35 39° 89° (E) 10:59:50 435.465 / 435.565
NANOSAT C BR1 23 May 10:52:14 10:54:49 16° 66° (ENE) 10:57:34 145.865
RS-15 23 May 10:54:51 11:05:43 82° 120° (ESE) 11:16:54 29.354- 29.394
Oscar 11 23 May 10:56:00 11:00:05 41° 98° (E) 11:04:10 145.826/435.025
QB50P2 23 May 10:56:39 10:59:36 19° 67° (ENE) 11:02:41 145.880/145.840
UNISAT 6 23 May 10:59:48 11:04:15 45° 72° (ENE) 11:08:44 437.425
CANX-2 23 May 11:00:06 11:04:02 38° 288° (WNW) 11:07:55 2200.000
CUTE 1.7 + AOD 2 23 May 11:04:19 11:08:16 38° 288° (WNW) 11:12:09 437.475
HUMSAT D 23 May 11:04:23 11:06:03 12° 89° (E) 11:07:56 437.325/437.525
PCSat 23 May 11:05:57 11:10:44 31° 50° (NE) 11:15:33 145.827
POPSAT HIP 1 23 May 11:09:27 11:12:54 25° 69° (ENE) 11:16:27 437.405
UWE-3 23 May 11:09:35 11:13:49 42° 97° (E) 11:17:56 435.000/436.395/437.385
DUCHIFAT 1 23 May 11:14:47 11:18:21 27° 69° (ENE) 11:22:01 145.980
HO-68 23 May 11:23:32 11:30:25 50° 293° (WNW) 11:37:11 435.675
50 SAT 23 May 11:25:01 11:25:51 11° 88° (E) 11:26:55 437.505
DELFI C3 23 May 11:29:28 11:33:29 75° 102° (ESE) 11:37:30 145.870
FUNcube-1 23 May 11:31:00 11:35:19 57° 100° (E) 11:39:31 145.935
SEEDS 23 May 11:34:09 11:37:27 23° 291° (WNW) 11:40:41 437.485
ANTELSAT 23 May 11:42:45 11:47:26 66° 259° (WSW) 11:52:06 437.575/2403.000
CUBEBUG 2 23 May 11:49:38 11:54:05 55° 286° (WNW) 11:58:21 437.445
POLYITAN 1 23 May 11:52:39 11:56:56 76° 76° (ENE) 12:01:16 437.675
QB50P1 23 May 11:53:03 11:57:18 75° 77° (ENE) 12:01:37 145.935-145.965
BRITE-PL 23 May 11:54:19 11:54:46 10° 302° (WNW) 11:54:50 437.365/2234.400
COMPASS 1 23 May 11:54:40 11:57:26 17° 293° (WNW) 12:00:05 437.405
BUGSAT 1 23 May 11:56:25 12:00:25 53° 74° (ENE) 12:04:32 437.445
DOVE 4 23 May 11:59:05 12:02:14 16° 297° (WNW) 12:05:07 437.250
CINEMA 3 23 May 12:07:22 12:11:03 22° 294° (WNW) 12:14:30 145.822/145.860
ESTCUBE 1 23 May 12:07:36 12:10:56 20° 92° (E) 12:14:22 437.505/2401.250
ZACube-1 23 May 12:09:48 12:14:04 51° 287° (WNW) 12:18:13 437.345
AAUSAT CUBESAT 2 23 May 12:11:00 12:13:08 14° 295° (WNW) 12:15:06 437.432
TIGRISAT 23 May 12:18:20 12:22:28 29° 265° (W) 12:26:33 435.000
UKube-1 23 May 12:20:13 12:24:36 89° 103° (ESE) 12:28:57 .
VELOX 1 23 May 12:20:35 12:24:55 47° 99° (E) 12:29:15 145.980
DX 1 23 May 12:22:43 12:27:09 80° 285° (WNW) 12:31:32 434.975-435.025
NANOSAT C BR1 23 May 12:26:14 12:30:20 46° 261° (W) 12:34:28 145.865
CUBEBUG 1 23 May 12:31:10 12:35:07 31° 96° (E) 12:39:06 437.445
QB50P2 23 May 12:31:13 12:35:15 39° 262° (W) 12:39:17 145.880/145.840
Oscar 11 23 May 12:33:02 12:35:59 18° 293° (WNW) 12:38:48 145.826/435.025
UNISAT 6 23 May 12:37:54 12:41:16 19° 269° (W) 12:44:30 437.425
Cosmos 2504 23 May 12:37:56 12:45:56 44° 286° (WNW) 12:53:24 435.465 / 435.565
HUMSAT D 23 May 12:38:07 12:42:13 52° 287° (WNW) 12:46:14 437.325/437.525
POPSAT HIP 1 23 May 12:44:56 12:48:41 29° 265° (W) 12:52:25 437.405
Oscar 19 23 May 12:46:28 12:48:27 12° 60° (ENE) 12:50:42 437.125/150
UWE-3 23 May 12:46:57 12:50:02 18° 294° (WNW) 12:52:56 435.000/436.395/437.385
PCSat 23 May 12:49:12 12:54:15 40° 248° (WSW) 12:59:14 145.827
DUCHIFAT 1 23 May 12:50:33 12:54:09 26° 266° (W) 12:57:41 145.980
AISAT 23 May 12:50:35 12:55:06 79° 284° (WNW) 12:59:35 437.250
50 SAT 23 May 12:57:10 13:00:59 52° 286° (WNW) 13:04:45 437.505
SO-50 23 May 13:06:54 13:11:14 30° 46° (NE) 13:15:34 436.795
FUNcube-1 23 May 13:08:53 13:11:11 14° 296° (WNW) 13:13:17 145.935
RS-15 23 May 13:09:40 13:19:30 35° 326° (NNW) 13:29:29 29.354- 29.394
GONETS M04 23 May 13:13:53 13:19:55 22° 81° (E) 13:26:21
CUSAT 1 23 May 13:24:21 13:29:55 27° 84° (E) 13:36:26 437.405
SPROUT 23 May 13:26:04 13:30:01 34° 96° (E) 13:33:58 437.525
BUGSAT 1 23 May 13:34:31 13:36:19 12° 271° (W) 13:37:56 437.445
ESTCUBE 1 23 May 13:43:46 13:47:58 38° 289° (WNW) 13:52:07 437.505/2401.250
VELOX 1 23 May 13:58:07 14:01:09 18° 295° (WNW) 14:04:02 145.980
TISAT 1 23 May 14:05:19 14:09:36 69° 101° (ESE) 14:13:50 437.305
DANDE 23 May 14:06:47 14:12:56 42° 89° (E) 14:20:28 436.750
CUBEBUG 1 23 May 14:07:43 14:11:21 24° 292° (WNW) 14:14:54 437.445
Oscar 19 23 May 14:21:56 14:27:09 89° 256° (WSW) 14:32:24 437.125/150
ITAMSAT 1 23 May 14:27:45 14:32:15 32° 68° (ENE) 14:36:50 435.822/435.867
ITUPSAT 1 23 May 14:37:00 14:40:45 23° 93° (E) 14:44:37 437.325
Gurwin Techsat 1B 23 May 14:41:21 14:46:13 40° 70° (ENE) 14:51:10 435.225
BEESAT 23 May 14:47:05 14:51:14 30° 95° (E) 14:55:26 436.000
SO-50 23 May 14:47:16 14:51:54 40° 244° (WSW) 14:56:25 436.795
SWISSCUBE 23 May 14:54:42 14:59:09 39° 97° (E) 15:03:38 437.505
SPROUT 23 May 15:02:33 15:05:55 22° 292° (WNW) 15:09:10 437.525
CUSAT 1 23 May 15:05:02 15:11:57 64° 284° (WNW) 15:20:06 437.405
GONETS M04 23 May 15:07:03 15:15:54 78° 280° (W) 15:24:48
Cosmos 2499 23 May 15:26:47 15:33:18 28° 86° (E) 15:39:42 435.465 / 435.565
AO-7 23 May 15:28:32 15:35:32 33° 59° (ENE) 15:42:44 29.400- 29.500
RS-15 23 May 15:28:42 15:36:36 21° 0° (N) 15:44:44 29.354- 29.394
JAS-2 23 May 15:36:15 15:41:51 29° 67° (ENE) 15:47:04 435.910
TISAT 1 23 May 15:43:19 15:44:51 11° 297° (WNW) 15:46:10 437.305
HORYU 2 23 May 15:46:19 15:50:06 28° 69° (ENE) 15:53:56 437.375
DANDE 23 May 15:49:49 15:56:14 40° 292° (WNW) 16:03:51 436.750
KKS-1 23 May 15:56:09 15:59:58 27° 95° (E) 16:03:50 437.445
ITAMSAT 1 23 May 16:07:10 16:11:45 31° 265° (W) 16:16:18 435.822/435.867
ITUPSAT 1 23 May 16:14:22 16:18:47 37° 290° (WNW) 16:23:08 437.325
Gurwin Techsat 1B 23 May 16:21:56 16:26:21 26° 267° (W) 16:30:42 435.225
O/OREOS (USA 219) 23 May 16:22:07 16:24:45 16° 101° (E) 16:27:34 437.305
BEESAT 23 May 16:24:55 16:29:02 29° 292° (WNW) 16:33:05 436.000
SWISSCUBE 23 May 16:33:03 16:36:49 23° 293° (WNW) 16:40:28 437.505
CUSAT 1 23 May 16:52:52 16:56:44 14° 308° (NW) 17:00:16 437.405
GONETS M04 23 May 17:09:15 17:14:35 16° 303° (WNW) 17:19:25
STARS 23 May 17:09:45 17:14:13 76° 285° (WNW) 17:18:36 437.465
Cosmos 2499 23 May 17:17:58 17:26:07 58° 282° (WNW) 17:33:40 435.465 / 435.565
AO-7 23 May 17:19:48 17:27:57 60° 257° (WSW) 17:36:10 29.400- 29.500
JAS-2 23 May 17:20:04 17:26:48 49° 261° (W) 17:32:46 435.910
HORYU 2 23 May 17:22:47 17:26:42 28° 265° (W) 17:30:33 437.375
KKS-1 23 May 17:32:43 17:36:34 28° 291° (WNW) 17:40:20 437.445
RS-15 23 May 17:43:41 17:53:47 35° 34° (NNE) 18:04:29 29.354- 29.394
CUTE-I 23 May 17:51:57 17:55:22 18° 63° (ENE) 17:58:59 437.470
O/OREOS (USA 219) 23 May 17:59:25 18:03:49 48° 296° (WNW) 18:08:12 437.305
Cubesat XI-IV 23 May 18:10:18 18:14:36 26° 66° (ENE) 18:19:01 437.490
MOZHAYETS 4 23 May 18:32:55 18:37:29 77° 285° (WNW) 18:42:03
BEESAT 3 23 May 18:46:16 18:47:33 12° 110° (ESE) 18:49:05 437.485
YUBILEINY 23 May 18:53:42 19:00:59 30° 67° (ENE) 19:08:29 435.215
Cosmos 2491 23 May 19:00:23 19:04:03 14° 77° (ENE) 19:08:22 435.465 / 435.565
